[[{"header":{"parameterUnit":"m.s-1","parameterCategory":1,"la1":30.2991,"la2":30.254,"lo1":-89.0895,"lo2":-89.0444,"dy":0.0017,"dx":0.0017,"nx":28,"ny":28,"refTime":"2025-03-20T09:00:00:Z","depth":0,"parameterNumber":2,"parameterNumberName":"U-component_of_WINDS"},"data":[0,0,0,0,0,0,0,0,0,0,0,0,0,0,0,0,0,0,0,0,0,0,0,0,0,0,0,0,0,0,0,0,0,0,0,0,0,0,0,0,0,0,0,0,0,0,0,0,0,0,0,0,0,0,0,0,0,0,2.2511,2.2511,0,2.2532,2.2532,2.2532,2.2481,2.2479,2.2478,2.2476,2.2501,2.2503,2.2505,0,0,0,0,0,0,0,0,0,0,0,0,0,2.2429,2.2431,2.2511,2.2511,2.2511,2.2532,2.2532,2.2532,2.2481,2.2479,2.2477,2.2476,2.25,2.2503,2.2505,0,0,0,0,0,0,0,0,0,0,0,0,0,2.2459,2.2432,2.2511,2.2488,2.2486,2.2532,2.2532,2.2532,2.2482,2.2479,2.2477,2.2475,2.2499,2.2503,2.2506,2.2575,0,0,2.2516,2.2517,0,0,0,0,0,0,0,0,2.2458,2.2462,2.2491,2.249,2.2488,2.2501,2.2512,2.2547,2.2482,2.2484,2.2476,2.2473,2.2503,2.2506,2.2515,2.2576,2.2577,2.2516,2.2518,2.2519,2.252,0,0,0,0,0,0,0,2.2456,2.2461,2.2519,2.2492,2.249,2.2478,2.248,2.2519,2.2507,2.2483,2.248,2.2483,2.2502,2.2512,2.2516,2.2577,2.2516,2.2519,2.2521,2.2522,2.2694,2.2697,0,0,0,0,0,0,2.2456,2.246,2.2518,2.252,2.2466,2.2481,2.2483,2.2499,2.2506,2.2505,2.2485,2.248,2.2508,2.2512,2.2516,2.2596,2.2519,2.2522,2.2524,2.2691,2.2695,2.2697,0,0,0,0,0,0,2.2454,2.2462,2.2518,2.2489,2.2495,2.2485,2.2504,2.2501,2.2511,2.2507,2.2505,2.2497,2.2506,2.2512,2.256,2.2596,2.2524,2.2527,2.2688,2.2692,2.2696,2.2757,0,0,0,0,0,0,2.2452,2.2461,2.2487,2.249,2.2497,2.256,2.2506,2.2503,2.2517,2.2511,2.2519,2.2518,2.2505,2.2555,2.2563,2.26,2.2529,2.2685,2.269,2.2695,2.2752,2.2763,2.2772,0,0,0,0,0,2.245,2.2504,2.2488,2.2496,2.2528,2.2563,2.2567,2.255,2.252,2.2546,2.2543,2.2517,2.2591,2.2561,2.2569,2.2607,2.2683,2.2689,2.2694,2.2747,2.2761,2.2772,0,0,0,0,0,0,2.2507,2.2504,2.2487,2.2544,2.2554,2.2554,2.2586,2.2565,2.2584,2.2578,2.2557,2.2559,2.2611,2.2614,2.258,2.2673,2.2632,2.264,2.267,2.2682,2.2692,2.269,2.2532,0,0,0,0,0,2.2526,2.2554,2.255,2.2601,2.2606,2.2596,2.261,2.2596,2.2606,2.261,2.2611,2.2622,2.2648,2.2665,2.2689,2.2752,2.2753,2.2783,2.2793,2.2801,2.2808,2.2841,2.2854,2.2717,2.2717,2.2717,0,0,2.2567,2.2568,2.2587,2.2612,2.2618,2.2648,2.2599,2.2633,2.2654,2.2616,2.266,2.2662,2.2673,2.2729,2.2754,2.2733,2.2846,2.2809,2.2815,2.2817,2.2848,2.2861,2.2873,2.2721,2.272,2.2719,0,0,2.2654,2.2659,2.2701,2.2708,2.2717,2.2709,2.2719,2.2723,2.2722,2.2766,2.2737,2.2764,2.2808,2.2817,2.2828,2.2919,2.2896,2.2927,2.298,2.3012,2.3023,2.3032,2.3064,2.3075,2.2934,2.2934,2.2934,0,2.2703,2.2745,2.2725,2.276,2.2772,2.2737,2.278,2.2788,2.2805,2.2814,2.2791,2.2845,2.2851,2.2908,2.293,2.294,2.2951,2.2926,2.3023,2.3032,2.304,2.307,2.3082,2.2938,2.2938,2.2937,2.2937,0,2.2805,2.2834,2.2867,2.2883,2.2899,2.2938,2.2924,2.2943,2.2928,2.2923,2.2969,2.2974,2.2997,2.301,2.2996,2.3065,2.3052,2.3026,2.2983,2.3057,2.3085,2.3096,2.2943,2.2942,2.2941,2.294,0,0,2.2929,2.2932,2.2945,2.2951,2.2959,2.2982,2.3019,2.3041,2.3057,2.307,2.3101,2.3139,2.3115,2.3127,2.3114,2.3143,2.3213,2.3113,2.3113,2.3131,2.3288,2.3307,2.332,2.3198,2.32,2.3202,2.3287,0,2.3014,2.3077,2.306,2.3123,2.315,2.3117,2.3149,2.3158,2.3155,2.3178,2.3174,2.3201,2.3168,2.3174,2.3201,2.3199,2.3244,2.3193,2.3227,2.3228,2.3223,2.3335,2.3355,2.3435,2.3298,2.33,2.3301,0,2.3122,2.3138,2.3203,2.3205,2.3216,2.3246,2.3264,2.3286,2.3296,2.3291,2.3304,2.3285,2.3322,2.3281,2.3332,2.3297,2.331,2.3311,2.3313,2.3315,2.3268,2.3339,2.346,2.3472,2.3318,2.3317,2.3316,0,2.3204,2.3243,2.3286,2.3293,2.3297,2.3318,2.3321,2.3328,2.3342,2.3359,2.3367,2.3389,2.34,2.3417,2.3405,2.3376,2.3458,2.3415,2.3455,2.3455,2.3473,2.3471,2.3596,2.3483,2.3483,2.3483,2.3483,0,2.3301,2.3342,2.3323,2.3349,2.3394,2.3375,2.342,2.342,2.3426,2.3452,2.3427,2.3452,2.3434,2.3459,2.345,2.3493,2.3499,2.3496,2.3493,2.3497,2.3498,2.3505,2.3499,2.3486,2.3485,2.3485,2.3484,0,2.34,2.3389,2.3434,2.3434,2.3435,2.3468,2.3469,2.3494,2.3488,2.3522,2.3529,2.3521,2.3548,2.3537,2.3567,2.356,2.3615,2.3605,2.3611,2.3608,2.3648,2.3644,2.3781,2.3798,2.3675,2.3676,2.3677,0,2.3462,2.3492,2.3495,2.351,2.3515,2.354,2.3554,2.3537,2.3552,2.3565,2.3588,2.3613,2.3631,2.3677,2.3674,2.3696,2.3686,2.3732,2.3689,2.3692,2.3685,2.3683,2.3685,2.3741,2.3742,2.3743,2.3744,0,2.3572,2.3565,2.3585,2.3603,2.362,2.3634,2.3646,2.366,2.3644,2.3663,2.3689,2.3704,2.3733,2.3758,2.3777,2.3781,2.376,2.3758,2.3768,2.3773,2.3774,2.3773,2.3634,2.3755,2.3754,2.3753,2.3752,2.3752,2.3653,2.3678,2.3684,2.3707,2.3714,2.3726,2.3749,2.3746,2.3768,2.3789,2.3778,2.3809,2.3818,2.3842,2.3848,2.3873,2.3855,2.387,2.3873,2.3877,2.3882,2.3772,2.3877,2.3876,2.3876,2.3876,2.3876,0,2.376,2.3763,2.3784,2.3801,2.3819,2.3797,2.3809,2.3826,2.3854,2.3863,2.3882,2.3912,2.3936,2.3935,2.3957,2.3977,2.3968,2.3983,2.3981,2.3982,2.3897,2.3885,2.399,2.399,2.399,2.399,2.399,2.399,2.3818,2.3859,2.3853,2.3897,2.3899,2.3929,2.3937,2.3948,2.3955,2.399,2.4009,2.4008,2.4013,2.4035,2.4056,2.4055,2.4064,2.4083,2.4079,2.3999,2.3988,2.3977,2.3966,2.4086,2.4086,2.4161,2.4162,2.4162]},{"header":{"parameterUnit":"m.s-1","parameterCategory":1,"la1":30.2991,"la2":30.254,"lo1":-89.0895,"lo2":-89.0444,"dy":0.0017,"dx":0.0017,"nx":28,"ny":28,"refTime":"2025-03-20T09:00:00:Z","depth":0,"parameterNumber":3,"parameterNumberName":"V-component_of_WINDS"},"data":[0,0,0,0,0,0,0,0,0,0,0,0,0,0,0,0,0,0,0,0,0,0,0,0,0,0,0,0,0,0,0,0,0,0,0,0,0,0,0,0,0,0,0,0,0,0,0,0,0,0,0,0,0,0,0,0,0,0,5.6164,5.6167,0,5.646,5.6464,5.6467,5.6532,5.653,5.6528,5.6526,5.6826,5.6836,5.6846,0,0,0,0,0,0,0,0,0,0,0,0,0,5.565,5.5659,5.6164,5.6167,5.6171,5.646,5.6464,5.6468,5.6533,5.653,5.6528,5.6525,5.6823,5.6835,5.6847,0,0,0,0,0,0,0,0,0,0,0,0,0,5.5902,5.5662,5.6163,5.6238,5.6248,5.6459,5.6464,5.6469,5.6533,5.653,5.6527,5.6524,5.6819,5.6834,5.6848,5.7004,0,0,5.6894,5.6901,0,0,0,0,0,0,0,0,5.5888,5.5921,5.6224,5.6234,5.6245,5.6456,5.6393,5.6648,5.6534,5.6425,5.6526,5.6522,5.6706,5.673,5.6792,5.7019,5.7031,5.6895,5.6905,5.6911,5.6915,0,0,0,0,0,0,0,5.5871,5.5909,5.6281,5.6228,5.6241,5.6256,5.6289,5.6442,5.6579,5.6434,5.644,5.6474,5.6711,5.6778,5.68,5.7036,5.6895,5.6908,5.6918,5.6923,5.7405,5.7408,0,0,0,0,0,0,5.584,5.5894,5.6272,5.629,5.6055,5.6268,5.6304,5.6392,5.6578,5.6603,5.6476,5.6476,5.6754,5.6782,5.681,5.7006,5.6911,5.6925,5.6933,5.7401,5.7405,5.741,0,0,0,0,0,0,5.5829,5.5873,5.626,5.6094,5.6144,5.628,5.6378,5.6399,5.6466,5.661,5.6634,5.652,5.6752,5.6789,5.6956,5.7017,5.6932,5.6945,5.7396,5.7402,5.7408,5.7397,0,0,0,0,0,0,5.5814,5.5869,5.5931,5.6095,5.6153,5.6401,5.6382,5.6407,5.6492,5.6494,5.6657,5.6681,5.6753,5.6933,5.6971,5.7036,5.6957,5.7391,5.7399,5.7406,5.7393,5.7402,5.741,0,0,0,0,0,5.5795,5.5915,5.5933,5.5979,5.6233,5.6405,5.6438,5.6519,5.6497,5.6559,5.6652,5.6676,5.7004,5.695,5.6993,5.7063,5.7388,5.7397,5.7405,5.7389,5.74,5.741,0,0,0,0,0,0,5.5754,5.5938,5.596,5.6137,5.6255,5.6415,5.6497,5.6528,5.6654,5.6651,5.6745,5.6781,5.6942,5.7019,5.6955,5.7224,5.7195,5.7212,5.7168,5.718,5.7188,5.7166,5.6969,0,0,0,0,0,5.5766,5.5891,5.6045,5.6186,5.6244,5.636,5.6438,5.649,5.6616,5.6666,5.677,5.689,5.702,5.7104,5.7232,5.7404,5.744,5.7473,5.7481,5.7488,5.7502,5.7599,5.7615,5.7438,5.7438,5.7437,0,0,5.5791,5.5907,5.598,5.618,5.6278,5.6405,5.6402,5.6536,5.6631,5.6686,5.685,5.693,5.707,5.724,5.732,5.731,5.7559,5.7499,5.7503,5.7514,5.7609,5.7626,5.7641,5.7444,5.7442,5.7442,0,0,5.5902,5.6002,5.6131,5.6229,5.6376,5.6453,5.6483,5.664,5.6696,5.6862,5.6906,5.7019,5.7241,5.7339,5.7418,5.7564,5.7591,5.7603,5.7648,5.7741,5.7755,5.7768,5.782,5.7838,5.7616,5.7617,5.7617,0,5.5914,5.6109,5.6193,5.6326,5.6412,5.6468,5.6598,5.6689,5.687,5.6928,5.6913,5.7194,5.7292,5.7485,5.7521,5.7583,5.762,5.7586,5.7746,5.776,5.7773,5.7824,5.7844,5.7617,5.7617,5.7617,5.7617,0,5.6117,5.625,5.6336,5.6511,5.6607,5.6738,5.684,5.6927,5.697,5.7048,5.7216,5.7335,5.7488,5.7537,5.758,5.7737,5.7726,5.7727,5.7701,5.7789,5.7839,5.7859,5.7618,5.7618,5.7617,5.7617,0,0,5.6212,5.6431,5.6461,5.6541,5.6707,5.6812,5.6944,5.7095,5.7167,5.729,5.7403,5.759,5.7592,5.7681,5.7736,5.7817,5.7926,5.7809,5.7814,5.7827,5.8106,5.8104,5.8126,5.7944,5.7948,5.7951,5.8094,0,5.6343,5.6584,5.6663,5.6862,5.6986,5.704,5.7156,5.7269,5.7345,5.746,5.7543,5.7674,5.7667,5.7721,5.7804,5.7895,5.7983,5.7886,5.805,5.8055,5.8015,5.8152,5.8151,5.8281,5.8114,5.8118,5.812,0,5.653,5.6657,5.6868,5.7019,5.7074,5.7177,5.7321,5.743,5.756,5.7609,5.7708,5.7756,5.7896,5.7859,5.8052,5.7984,5.8056,5.811,5.8117,5.8136,5.8094,5.8176,5.8324,5.8343,5.8151,5.8149,5.8147,0,5.6579,5.6802,5.6958,5.7024,5.7203,5.7274,5.7352,5.7479,5.7564,5.7689,5.7745,5.7884,5.796,5.8066,5.815,5.8116,5.8335,5.8306,5.838,5.8378,5.8425,5.8421,5.8587,5.8469,5.8468,5.8468,5.8468,0,5.6719,5.6846,5.6982,5.7078,5.7222,5.731,5.745,5.7531,5.7643,5.7754,5.7809,5.7912,5.8016,5.8132,5.8198,5.8348,5.8382,5.8425,5.8441,5.8421,5.8416,5.847,5.8464,5.8473,5.8472,5.8471,5.847,0,5.6798,5.6894,5.7068,5.7223,5.7265,5.7364,5.7497,5.7591,5.7668,5.7809,5.7847,5.7967,5.8107,5.8201,5.838,5.8424,5.8587,5.8601,5.8544,5.8552,5.8621,5.8613,5.8829,5.8862,5.872,5.8721,5.8722,0,5.6882,5.6981,5.7147,5.7226,5.7305,5.7431,5.7519,5.7609,5.7697,5.7852,5.7928,5.8071,5.8192,5.8412,5.8515,5.8652,5.867,5.8736,5.8691,5.8668,5.8672,5.8666,5.8676,5.8743,5.8745,5.8745,5.8746,0,5.702,5.7062,5.7187,5.7328,5.743,5.7546,5.7661,5.7722,5.7832,5.7928,5.8073,5.8166,5.8349,5.8491,5.8637,5.8716,5.875,5.8759,5.8784,5.8765,5.8728,5.875,5.8564,5.8754,5.8754,5.8753,5.8752,5.8752,5.7105,5.7196,5.7327,5.7463,5.756,5.7666,5.7763,5.7851,5.7974,5.8131,5.8176,5.8326,5.8452,5.8652,5.8733,5.8851,5.8845,5.888,5.8889,5.8897,5.8897,5.8708,5.8878,5.8878,5.8878,5.8878,5.8878,0,5.7246,5.7333,5.7458,5.7618,5.7725,5.7747,5.7876,5.7964,5.8096,5.8211,5.8328,5.8494,5.8631,5.8744,5.8886,5.8959,5.8978,5.8993,5.8989,5.9007,5.8895,5.886,5.8976,5.8976,5.8976,5.8976,5.8975,5.8975,5.7333,5.7488,5.7546,5.7749,5.7834,5.7983,5.8054,5.8152,5.8245,5.8428,5.8543,5.8616,5.8731,5.8881,5.9008,5.9037,5.9087,5.91,5.9132,5.9026,5.9015,5.9004,5.8972,5.9109,5.911,5.9235,5.9236,5.9237]}]]